• In Latvia
  • List of Countries
  • For 7 days
  • Water Temperature
  • Satellite Maps
  • Weather Map
  • Weather Widgets
  • user-avatar
    Login

    Hourly Weather Río Gallegos

    Today, 2 December, Friday

    Time Temperature Precipitation Wind Pressure Humidity
    00:00 +5°C° 0 mm 15 mps 753 mmHg 61%
    01:00 +5°C° 0 mm 12 mps 753 mmHg 63%
    02:00 +6°C° 0 mm 11 mps 754 mmHg 65%
    03:00 +4°C° 0 mm 11 mps 755 mmHg 67%
    04:00 +5°C° 0 mm 10 mps 756 mmHg 69%
    05:00 +6°C° 0 mm 10 mps 756 mmHg 65%
    06:00 +8°C° 0 mm 9 mps 757 mmHg 60%
    07:00 +10°C° 0 mm 8 mps 757 mmHg 53%
    08:00 +11°C° 0 mm 7 mps 757 mmHg 51%
    09:00 +13°C° 0 mm 6 mps 757 mmHg 48%
    10:00 +14°C° 0 mm 6 mps 757 mmHg 45%
    11:00 +14°C° 0 mm 5 mps 757 mmHg 42%
    12:00 +15°C° 0 mm 4 mps 756 mmHg 40%
    13:00 +17°C° 0 mm 3 mps 756 mmHg 38%
    14:00 +16°C° 0 mm 5 mps 756 mmHg 39%
    15:00 +16°C° 0 mm 6 mps 755 mmHg 40%
    16:00 +16°C° 0 mm 8 mps 755 mmHg 41%
    17:00 +13°C° 0 mm 8 mps 755 mmHg 46%
    18:00 +12°C° 0 mm 9 mps 754 mmHg 51%
    19:00 +10°C° 0 mm 9 mps 754 mmHg 57%
    20:00 +10°C° 0 mm 9 mps 754 mmHg 60%
    21:00 +10°C° 0 mm 9 mps 754 mmHg 64%
    22:00 +9°C° 0 mm 8 mps 753 mmHg 67%
    23:00 +9°C° 0 mm 6 mps 753 mmHg 70%

    Tomorrow, 3 December, Saturday

    Time Temperature Precipitation Wind Pressure Humidity
    00:00 +9°C° 0 mm 5 mps 752 mmHg 73%
    01:00 +10°C° 0 mm 3 mps 751 mmHg 75%
    02:00 +10°C° 0 mm 2 mps 751 mmHg 72%
    03:00 +12°C° 0 mm 2 mps 751 mmHg 68%
    04:00 +12°C° 0 mm 2 mps 750 mmHg 64%
    05:00 +11°C° 0.2 mm 3 mps 750 mmHg 66%
    06:00 +12°C° 0.2 mm 3 mps 750 mmHg 68%
    07:00 +12°C° 0.2 mm 4 mps 750 mmHg 70%
    08:00 +12°C° 0.3 mm 4 mps 750 mmHg 72%
    09:00 +12°C° 0.3 mm 4 mps 750 mmHg 73%
    10:00 +12°C° 0.3 mm 4 mps 750 mmHg 74%
    11:00 +13°C° 0.2 mm 5 mps 750 mmHg 71%
    12:00 +14°C° 0.2 mm 5 mps 750 mmHg 68%
    13:00 +14°C° 0.2 mm 5 mps 750 mmHg 65%
    14:00 +15°C° 0.1 mm 5 mps 750 mmHg 62%
    15:00 +15°C° 0.1 mm 5 mps 750 mmHg 59%
    16:00 +15°C° 0.1 mm 6 mps 750 mmHg 55%
    17:00 +14°C° 0 mm 6 mps 750 mmHg 57%
    18:00 +14°C° 0 mm 5 mps 751 mmHg 58%
    19:00 +13°C° 0 mm 5 mps 751 mmHg 59%
    20:00 +11°C° 0 mm 6 mps 752 mmHg 62%
    21:00 +9°C° 0 mm 6 mps 752 mmHg 65%
    22:00 +8°C° 0 mm 6 mps 753 mmHg 68%
    23:00 +7°C° 0 mm 6 mps 753 mmHg 67%

    Day after tomorrow, 4 December, Sunday

    Time Temperature Precipitation Wind Pressure Humidity
    00:00 +7°C° 0 mm 6 mps 754 mmHg 66%
    01:00 +6°C° 0 mm 5 mps 754 mmHg 65%
    02:00 +6°C° 0 mm 5 mps 754 mmHg 65%
    03:00 +5°C° 0 mm 4 mps 755 mmHg 66%
    04:00 +5°C° 0 mm 3 mps 755 mmHg 67%
    05:00 +7°C° 0 mm 3 mps 755 mmHg 62%
    06:00 +7°C° 0 mm 3 mps 755 mmHg 57%
    07:00 +8°C° 0 mm 3 mps 756 mmHg 52%
    08:00 +9°C° 0 mm 2 mps 756 mmHg 47%
    09:00 +12°C° 0 mm 2 mps 756 mmHg 42%
    10:00 +13°C° 0 mm 1 mps 756 mmHg 38%
    11:00 +14°C° 0 mm 2 mps 755 mmHg 37%
    12:00 +14°C° 0 mm 2 mps 755 mmHg 36%
    13:00 +14°C° 0 mm 3 mps 755 mmHg 35%
    14:00 +14°C° 0 mm 4 mps 755 mmHg 39%
    15:00 +14°C° 0 mm 5 mps 754 mmHg 42%
    16:00 +14°C° 0 mm 5 mps 754 mmHg 45%
    17:00 +11°C° 0 mm 6 mps 754 mmHg 50%
    18:00 +10°C° 0 mm 6 mps 755 mmHg 56%
    19:00 +9°C° 0 mm 6 mps 755 mmHg 61%
    20:00 +8°C° 0 mm 6 mps 755 mmHg 63%
    21:00 +8°C° 0 mm 5 mps 755 mmHg 65%
    22:00 +7°C° 0 mm 5 mps 755 mmHg 67%
    23:00 +7°C° 0 mm 5 mps 755 mmHg 69%

    5 December, Monday

    Time Temperature Precipitation Wind Pressure Humidity
    00:00 +7°C° 0 mm 4 mps 755 mmHg 71%
    01:00 +7°C° 0 mm 4 mps 755 mmHg 73%
    02:00 +7°C° 0 mm 4 mps 755 mmHg 74%
    03:00 +7°C° 0 mm 5 mps 755 mmHg 75%
    04:00 +7°C° 0 mm 5 mps 754 mmHg 76%
    05:00 +8°C° 0 mm 5 mps 754 mmHg 72%
    06:00 +10°C° 0 mm 5 mps 754 mmHg 68%
    07:00 +12°C° 0 mm 5 mps 754 mmHg 63%
    08:00 +14°C° 0 mm 5 mps 754 mmHg 59%
    09:00 +15°C° 0 mm 5 mps 753 mmHg 54%
    10:00 +18°C° 0 mm 4 mps 753 mmHg 50%
    11:00 +17°C° 0 mm 5 mps 753 mmHg 51%
    12:00 +17°C° 0 mm 5 mps 752 mmHg 52%
    13:00 +19°C° 0 mm 5 mps 752 mmHg 53%
    14:00 +17°C° 0.2 mm 5 mps 752 mmHg 55%
    15:00 +17°C° 0.2 mm 5 mps 752 mmHg 57%
    16:00 +16°C° 0.2 mm 5 mps 752 mmHg 58%
    17:00 +16°C° 0 mm 5 mps 752 mmHg 56%
    18:00 +15°C° 0 mm 5 mps 753 mmHg 54%
    19:00 +15°C° 0 mm 6 mps 753 mmHg 52%
    20:00 +14°C° 0 mm 6 mps 753 mmHg 54%
    21:00 +13°C° 0 mm 6 mps 754 mmHg 56%
    22:00 +10°C° 0 mm 5 mps 754 mmHg 58%
    23:00 +10°C° 0 mm 6 mps 754 mmHg 61%

    6 December, Tuesday

    Time Temperature Precipitation Wind Pressure Humidity
    00:00 +10°C° 0 mm 6 mps 754 mmHg 63%
    01:00 +10°C° 0 mm 6 mps 754 mmHg 65%
    02:00 +9°C° 0 mm 6 mps 754 mmHg 68%
    03:00 +9°C° 0 mm 6 mps 755 mmHg 71%
    04:00 +9°C° 0 mm 7 mps 755 mmHg 74%
    05:00 +9°C° 0 mm 7 mps 755 mmHg 71%
    06:00 +8°C° 0 mm 7 mps 756 mmHg 68%
    07:00 +8°C° 0 mm 7 mps 757 mmHg 64%
    08:00 +9°C° 0 mm 7 mps 757 mmHg 59%
    09:00 +10°C° 0 mm 7 mps 757 mmHg 53%
    10:00 +11°C° 0 mm 7 mps 758 mmHg 47%
    11:00 +11°C° 0 mm 7 mps 758 mmHg 44%
    12:00 +12°C° 0 mm 7 mps 758 mmHg 42%
    13:00 +14°C° 0 mm 7 mps 758 mmHg 39%
    14:00 +14°C° 0 mm 7 mps 758 mmHg 40%
    15:00 +12°C° 0 mm 7 mps 758 mmHg 40%
    16:00 +12°C° 0 mm 7 mps 758 mmHg 41%
    17:00 +11°C° 0 mm 7 mps 758 mmHg 44%
    18:00 +10°C° 0 mm 7 mps 759 mmHg 47%
    19:00 +9°C° 0 mm 7 mps 759 mmHg 50%
    20:00 +8°C° 0 mm 7 mps 759 mmHg 52%
    21:00 +7°C° 0 mm 8 mps 759 mmHg 55%
    22:00 +6°C° 0 mm 8 mps 760 mmHg 57%
    23:00 +5°C° 0.1 mm 8 mps 759 mmHg 59%

    7 December, Wednesday

    Time Temperature Precipitation Wind Pressure Humidity
    00:00 +5°C° 0.1 mm 8 mps 759 mmHg 62%
    01:00 +4°C° 0.1 mm 8 mps 759 mmHg 64%
    02:00 +5°C° 0 mm 8 mps 759 mmHg 66%
    03:00 +5°C° 0 mm 9 mps 759 mmHg 68%
    04:00 +5°C° 0 mm 9 mps 758 mmHg 69%
    05:00 +6°C° 0 mm 9 mps 758 mmHg 68%
    06:00 +7°C° 0 mm 10 mps 758 mmHg 66%
    07:00 +8°C° 0 mm 11 mps 758 mmHg 64%
    08:00 +9°C° 0 mm 11 mps 758 mmHg 64%
    09:00 +9°C° 0 mm 11 mps 758 mmHg 63%
    10:00 +9°C° 0 mm 11 mps 758 mmHg 63%
    11:00 +11°C° 0.1 mm 11 mps 758 mmHg 60%
    12:00 +11°C° 0.1 mm 11 mps 758 mmHg 57%
    13:00 +12°C° 0.1 mm 11 mps 758 mmHg 55%
    14:00 +12°C° 0 mm 11 mps 758 mmHg 53%
    15:00 +13°C° 0 mm 11 mps 757 mmHg 51%
    16:00 +13°C° 0 mm 11 mps 757 mmHg 49%
    17:00 +12°C° 0 mm 10 mps 757 mmHg 53%
    18:00 +11°C° 0 mm 10 mps 757 mmHg 57%
    19:00 +11°C° 0 mm 9 mps 757 mmHg 61%
    20:00 +10°C° 0 mm 8 mps 757 mmHg 62%
    21:00 +9°C° 0 mm 8 mps 757 mmHg 63%
    22:00 +8°C° 0 mm 7 mps 757 mmHg 65%
    23:00 +7°C° 0 mm 8 mps 756 mmHg 64%
    Show more